| time (UTC) | temp C | wind direction | speed KPH | gust KPH | rain 1hr cm | rain 24hr cm | rain mn cm | humidity % | barometer mb |
| 20260505121615 | 15 | 130 | 16.1 | 25.7 | 0.03 | 0.03 | 0.03 | 74 | 954.7 |
| 20260505120055 | 15 | 107 | 17.7 | 25.7 | 0.03 | 0.03 | 0.03 | 74 | 954.3 |
| 20260505114551 | 15 | 132 | 6.4 | 33.8 | 0.03 | 0.03 | 0.03 | 72 | 954.0 |
| 20260505113050 | 15 | 196 | 4.8 | 12.9 | 0.00 | 0.00 | 0.00 | 69 | 954.7 |
| 20260505111547 | 15 | 142 | 6.4 | 20.9 | 0.00 | 0.00 | 0.00 | 67 | 954.4 |
| 20260505101541 | 14 | 113 | 12.9 | 19.3 | 0.00 | 0.00 | 0.00 | 67 | 954.0 |
| 20260505100035 | 15 | 101 | 11.3 | 20.9 | 0.00 | 0.00 | 0.00 | 66 | 953.7 |
| 20260505094536 | 15 | 77 | 14.5 | 20.9 | 0.00 | 0.00 | 0.00 | 65 | 953.7 |
| 20260505093040 | 15 | 82 | 14.5 | 22.5 | 0.00 | 0.00 | 0.00 | 64 | 953.4 |
| 20260505091532 | 15 | 113 | 12.9 | 22.5 | 0.00 | 0.00 | 0.00 | 64 | 953.5 |
| 20260505090043 | 15 | 115 | 14.5 | 24.1 | 0.00 | 0.00 | 0.00 | 64 | 953.3 |
| 20260505084531 | 15 | 120 | 14.5 | 19.3 | 0.00 | 0.00 | 0.00 | 65 | 953.3 |
| 20260505083029 | 15 | 94 | 11.3 | 17.7 | 0.00 | 0.00 | 0.00 | 63 | 953.3 |
| 20260505081531 | 15 | 104 | 11.3 | 19.3 | 0.00 | 0.00 | 0.00 | 62 | 953.4 |
| 20260505080030 | 15 | 123 | 11.3 | 20.9 | 0.00 | 0.00 | 0.00 | 62 | 953.4 |
| 20260505074524 | 15 | 130 | 12.9 | 24.1 | 0.00 | 0.00 | 0.00 | 63 | 953.6 |
| 20260505073030 | 15 | 132 | 11.3 | 22.5 | 0.00 | 0.00 | 0.00 | 61 | 953.5 |
| 20260505071623 | 15 | 113 | 12.9 | 20.9 | 0.00 | 0.00 | 0.00 | 61 | 953.5 |
| 20260505070024 | 15 | 111 | 12.9 | 24.1 | 0.00 | 0.00 | 0.00 | 60 | 953.6 |
| 20260505064525 | 15 | 97 | 12.9 | 19.3 | 0.00 | 0.00 | 0.00 | 60 | 953.6 |
| 20260505063022 | 15 | 92 | 12.9 | 25.7 | 0.00 | 0.00 | 0.00 | 60 | 953.6 |
| 20260505061522 | 15 | 104 | 11.3 | 22.5 | 0.00 | 0.00 | 0.00 | 59 | 953.6 |
| 20260505060027 | 15 | 138 | 14.5 | 25.7 | 0.00 | 0.00 | 0.00 | 59 | 953.6 |
| 20260505054531 | 15 | 113 | 11.3 | 22.5 | 0.00 | 0.00 | 0.00 | 60 | 953.6 |
| 20260505053016 | 15 | 113 | 14.5 | 25.7 | 0.00 | 0.00 | 0.00 | 59 | 953.6 |
| 20260505051514 | 14 | 98 | 16.1 | 22.5 | 0.00 | 0.00 | 0.00 | 60 | 953.8 |
| 20260505041606 | 15 | 93 | 16.1 | 24.1 | 0.00 | 0.00 | 0.00 | 56 | 953.7 |
| 20260505040002 | 16 | 96 | 16.1 | 24.1 | 0.00 | 0.00 | 0.00 | 55 | 953.6 |
| 20260505034600 | 16 | 88 | 14.5 | 22.5 | 0.00 | 0.00 | 0.00 | 54 | 953.5 |
| 20260505033115 | 16 | 111 | 17.7 | 29.0 | 0.00 | 0.00 | 0.00 | 54 | 953.5 |
| 20260505031559 | 16 | 117 | 19.3 | 30.6 | 0.00 | 0.00 | 0.00 | 53 | 953.5 |
| 20260505030059 | 16 | 146 | 20.9 | 48.3 | 0.00 | 0.00 | 0.00 | 52 | 953.4 |
| 20260505024604 | 16 | 125 | 24.1 | 40.2 | 0.00 | 0.00 | 0.00 | 52 | 953.5 |
| 20260505023106 | 16 | 117 | 20.9 | 35.4 | 0.00 | 0.00 | 0.00 | 51 | 953.5 |
| 20260505021557 | 17 | 121 | 22.5 | 33.8 | 0.00 | 0.00 | 0.00 | 50 | 953.5 |
| 20260505020057 | 17 | 96 | 19.3 | 37.0 | 0.00 | 0.00 | 0.00 | 49 | 953.5 |
| 20260505014555 | 17 | 101 | 24.1 | 35.4 | 0.00 | 0.00 | 0.00 | 48 | 953.6 |
| 20260505013055 | 17 | 113 | 22.5 | 33.8 | 0.00 | 0.00 | 0.00 | 47 | 953.4 |
| 20260505011600 | 17 | 102 | 25.7 | 40.2 | 0.00 | 0.00 | 0.00 | 47 | 953.4 |
| 20260505010058 | 17 | 88 | 25.7 | 40.2 | 0.00 | 0.00 | 0.00 | 47 | 953.2 |
| 20260505004555 | 17 | 117 | 22.5 | 40.2 | 0.00 | 0.00 | 0.00 | 46 | 953.2 |
| 20260505003051 | 17 | 109 | 19.3 | 32.2 | 0.00 | 0.00 | 0.00 | 46 | 953.2 |
| 20260505001551 | 18 | 98 | 20.9 | 30.6 | 0.00 | 0.00 | 0.00 | 46 | 953.0 |
| 20260505000051 | 18 | 129 | 19.3 | 30.6 | 0.00 | 0.00 | 0.00 | 45 | 952.9 |
| 20260504234613 | 18 | 97 | 12.9 | 25.7 | 0.00 | 0.00 | 0.00 | 44 | 952.8 |
| 20260504233051 | 18 | 133 | 12.9 | 25.7 | 0.00 | 0.00 | 0.00 | 44 | 952.8 |
| 20260504231554 | 18 | 121 | 14.5 | 24.1 | 0.00 | 0.00 | 0.00 | 42 | 952.7 |
| 20260504230047 | 19 | 126 | 8.0 | 20.9 | 0.00 | 0.00 | 0.00 | 42 | 952.7 |
| 20260504224548 | 19 | 161 | 8.0 | 22.5 | 0.00 | 0.00 | 0.00 | 41 | 952.7 |
| 20260504223046 | 20 | 166 | 8.0 | 22.5 | 0.00 | 0.00 | 0.00 | 41 | 952.6 |
| 20260504221554 | 20 | 118 | 9.7 | 30.6 | 0.00 | 0.00 | 0.00 | 41 | 952.6 |
| 20260504220045 | 20 | 106 | 20.9 | 37.0 | 0.00 | 0.00 | 0.00 | 41 | 952.5 |
| 20260504214549 | 20 | 112 | 17.7 | 27.4 | 0.00 | 0.00 | 0.00 | 41 | 952.6 |
| 20260504213048 | 20 | 163 | 6.4 | 19.3 | 0.00 | 0.00 | 0.00 | 42 | 952.7 |
| 20260504211541 | 20 | 171 | 11.3 | 19.3 | 0.00 | 0.00 | 0.00 | 41 | 952.8 |
| 20260504210052 | 20 | 142 | 11.3 | 22.5 | 0.00 | 0.00 | 0.00 | 40 | 953.0 |
| 20260504204617 | 21 | 105 | 4.8 | 24.1 | 0.00 | 0.00 | 0.00 | 40 | 953.1 |
| 20260504203036 | 21 | 134 | 3.2 | 17.7 | 0.00 | 0.00 | 0.00 | 39 | 953.3 |
| 20260504201537 | 21 | 191 | 9.7 | 19.3 | 0.00 | 0.00 | 0.00 | 40 | 953.4 |
| 20260504200038 | 20 | 220 | 6.4 | 22.5 | 0.00 | 0.00 | 0.00 | 40 | 953.7 |
| 20260504194543 | 21 | 177 | 6.4 | 19.3 | 0.00 | 0.00 | 0.00 | 40 | 953.7 |
| 20260504193031 | 21 | 185 | 12.9 | 24.1 | 0.00 | 0.00 | 0.00 | 38 | 954.0 |
| 20260504191529 | 21 | 167 | 8.0 | 24.1 | 0.00 | 0.00 | 0.00 | 42 | 953.8 |
| 20260504190033 | 20 | 111 | 14.5 | 29.0 | 0.00 | 0.00 | 0.00 | 45 | 953.9 |
| 20260504184526 | 19 | 138 | 4.8 | 19.3 | 0.00 | 0.00 | 0.00 | 42 | 954.1 |
| 20260504183029 | 21 | 159 | 9.7 | 19.3 | 0.00 | 0.00 | 0.00 | 39 | 954.3 |
| 20260504181525 | 19 | 188 | 6.4 | 17.7 | 0.00 | 0.00 | 0.00 | 42 | 954.4 |
| 20260504180021 | 21 | 127 | 12.9 | 24.1 | 0.00 | 0.00 | 0.00 | 39 | 954.5 |
| 20260504174518 | 20 | 186 | 11.3 | 20.9 | 0.00 | 0.00 | 0.00 | 41 | 954.5 |
| 20260504173017 | 20 | 128 | 12.9 | 22.5 | 0.00 | 0.00 | 0.00 | 41 | 954.6 |
| 20260504171533 | 20 | 202 | 8.0 | 16.1 | 0.00 | 0.00 | 0.00 | 42 | 954.5 |